Location: Zwardon
(49.5170°N, 18.9830°E)
Time: 04:11:10
(UTC+01:00)

ISS - Visible Passes

Search period start: 22 March 2023 00:00
Search period end: 01 April 2023 01:00
Orbit: 414 x 423 km, 51.6° (Epoch: 22 March)

Date Brightness Start Highest point End Pass type
(mag) Time Alt. Az. Time Alt. Az. Time Alt. Az.
22 Mar -3.8 18:41:51 10° WSW 18:45:13 86° NNW 18:48:35 10° ENE visible
22 Mar -2.9 20:18:52 10° WNW 20:21:37 49° NW 20:21:37 49° NW visible
23 Mar -3.3 19:30:58 10° W 19:34:17 57° N 19:35:46 29° ENE visible
23 Mar -0.8 21:07:54 10° WNW 21:08:43 16° WNW 21:08:43 16° WNW visible
24 Mar -3.4 18:43:02 10° W 18:46:23 62° N 18:49:42 10° ENE visible
24 Mar -3.1 20:20:01 10° WNW 20:22:47 54° NW 20:22:47 54° NW visible
25 Mar -3.5 19:32:07 10° WNW 19:35:27 61° N 19:36:50 31° ENE visible
25 Mar -0.9 21:08:58 10° WNW 21:09:46 16° W 21:09:46 16° W visible
26 Mar -3.3 19:44:09 10° WNW 19:47:28 57° N 19:50:47 10° E visible
26 Mar -3.2 21:21:01 10° WNW 21:23:46 55° W 21:23:46 55° W visible
27 Mar -3.8 20:33:03 10° WNW 20:36:26 85° NNE 20:37:45 34° ESE visible
27 Mar -0.8 22:10:07 10° W 22:10:41 13° W 22:10:41 13° W visible
28 Mar -3.6 19:45:05 10° WNW 19:48:26 70° NNE 19:51:44 10° E visible
28 Mar -2.6 21:21:58 10° W 21:24:40 36° SW 21:24:40 36° SW visible
29 Mar -3.4 20:33:54 10° WNW 20:37:11 54° SSW 20:38:39 28° SE visible
30 Mar -3.7 19:45:50 10° WNW 19:49:12 76° SSW 19:52:32 10° ESE visible
30 Mar -1.6 21:23:11 10° W 21:25:34 18° SW 21:25:35 18° SW visible
31 Mar -2.1 20:34:47 10° W 20:37:40 27° SW 20:39:36 16° SSE visible
